Torna al catalogo

SINOD-D 3

AttivoScienzaLEO
NORAD 40977·PAYLOAD·🇺🇸 United States

Lanciato Oct 8, 2015 da Vandenberg Space Force Base

Loading…

Prossimi Passaggi (prossime 24 ore)

TLE

AggiornatoSource: Space-Track

Epoca: Sep 14, 2026, 06:01 UTC

1 40977U 15058P   26257.25131723  .00001855  00000-0  16055-3 0  9991
2 40977  64.7742 357.5662 0126618  24.2562 336.4440 14.94561996128063

Traccia SINOD-D 3 in tempo reale con AllMySat

Download on the App Store